Morrisville, VT

3:56 PM EST on December 06, 2019 (GMT -0500)
Morrisville Stowe State

Weather History for KMVL - November, 2019

Change the Weather History Date:

Monday, November 18, 2019

  Actual Average Record
Temperature  
Mean Temperature 22 °F 34 °F  
Max Temperature 36 °F 43 °F 58 °F (2016)
Min Temperature 8 °F 26 °F 10 °F (2018)
Degree Days  
Heating Degree Days 43 31  
Month to date heating degree days 662 496  
Since 1 July heating degree days 1481 1427  
Cooling Degree Days 0 0  
Month to date cooling degree days 0 0  
Year to date cooling degree days 254 265  
Moisture  
Dew Point 15 °F    
Average Humidity 73    
Maximum Humidity 88    
Minimum Humidity 54    
Precipitation  
Precipitation 0.00 in 0.12 in 0.46 in (2002)
Month to date precipitation 1.02 1.85  
Year to date precipitation 40.05 32.09  
Sea Level Pressure  
Sea Level Pressure 29.98 in    
Wind  
Wind Speed 1 mph ()    
Max Wind Speed 8 mph    
Max Gust Speed 10 mph    
Visibility 10.0 miles    
Events      
T = Trace of Precipitation, MM = Missing Value Source: Averaged Metar Reports

Daily Weather History Graph

Daily Weather History Graph

Search for Another Location

Airport or City:

Astronomy

Nov. 18, 2019 Rise Set
Actual Time 6:50 AM EST 4:20 PM EST
Civil Twilight 6:18 AM EST 4:51 PM EST
Nautical Twilight 5:43 AM EST 5:27 PM EST
Astronomical Twilight 5:08 AM EST 6:01 PM EST
Moon 10:01 PM EST (11/18) 12:20 PM EST (11/18)
Length of Visible Light 10h 33m
Length of Day
9h 29m
Waning Gibbous, 63% of the Moon is Illuminated
Nov 18
Waning Gibbous
Nov 19
Last Quarter
Nov 26
New
Dec 4
First Quarter
Dec 12
Full

Hourly Weather History & Observations

Time (EST) Temp. Windchill Dew Point Humidity Pressure Visibility Wind Dir Wind Speed Gust Speed Precip Events Conditions
12:15 AM 10.9 °F - 6.1 °F 81% 30.16 in 10.0 mi Calm Calm - N/A   Mostly Cloudy
12:32 AM 10.9 °F - 6.1 °F 81% 30.15 in 10.0 mi Calm Calm - N/A   Scattered Clouds
12:54 AM 10.0 °F 1.8 °F 6.1 °F 84% 30.19 in 10.0 mi SW 4.6 mph - N/A   Partly Cloudy
1:54 AM 9.0 °F - 6.1 °F 88% 30.17 in 10.0 mi Calm Calm - N/A   Scattered Clouds
2:54 AM 9.0 °F - 6.1 °F 88% 30.15 in 10.0 mi Calm Calm - N/A   Clear
3:30 AM 9.0 °F - 6.1 °F 88% 30.10 in 10.0 mi Calm Calm - N/A   Mostly Cloudy
3:54 AM 10.0 °F 1.8 °F 6.1 °F 84% 30.13 in 10.0 mi North 4.6 mph - N/A   Scattered Clouds
4:54 AM 9.0 °F - 6.1 °F 88% 30.11 in 10.0 mi Calm Calm - N/A   Partly Cloudy
5:17 AM 10.0 °F - 7.0 °F 87% 30.06 in 10.0 mi Calm Calm - N/A   Mostly Cloudy
5:54 AM 10.9 °F - 7.0 °F 84% 30.11 in 10.0 mi Calm Calm - N/A   Overcast
6:54 AM 12.9 °F - 9.0 °F 84% 30.10 in 10.0 mi Calm Calm - N/A   Scattered Clouds
7:54 AM 12.0 °F - 8.1 °F 84% 30.10 in 10.0 mi Calm Calm - N/A   Clear
8:54 AM 17.1 °F 8.7 °F 10.9 °F 77% 30.07 in 10.0 mi North 5.8 mph - N/A   Clear
9:54 AM 23.0 °F 15.8 °F 14.0 °F 68% 30.05 in 10.0 mi North 5.8 mph - N/A   Partly Cloudy
10:42 AM 26.1 °F - 15.1 °F 63% 29.98 in 10.0 mi Calm Calm - N/A   Overcast
10:54 AM 28.0 °F - 15.1 °F 58% 30.01 in 10.0 mi Calm Calm - N/A   Overcast
11:54 AM 30.9 °F - 18.0 °F 59% 29.98 in 10.0 mi Calm Calm - N/A   Overcast
12:03 PM 32.0 °F - 19.0 °F 59% 29.93 in 10.0 mi Calm Calm - N/A   Overcast
12:33 PM 34.0 °F - 19.0 °F 54% 29.92 in 10.0 mi Calm Calm - N/A   Overcast
12:54 PM 34.0 °F - 19.9 °F 56% 29.95 in 10.0 mi Calm Calm - N/A   Overcast
2:54 PM 36.0 °F - 21.9 °F 57% 29.90 in 10.0 mi Calm Calm - N/A   Overcast
3:44 PM 35.1 °F 30.1 °F 21.9 °F 59% 29.85 in 10.0 mi North 5.8 mph - N/A   Overcast
3:54 PM 35.1 °F 29.3 °F 21.9 °F 59% 29.88 in 10.0 mi North 6.9 mph - N/A   Overcast
4:54 PM 35.1 °F - 23.0 °F 61% 29.87 in 10.0 mi Calm Calm - N/A   Overcast
5:19 PM 34.0 °F - 23.0 °F 64% 29.83 in 10.0 mi Calm Calm - N/A   Overcast
5:54 PM 33.1 °F - 25.0 °F 72% 29.86 in 10.0 mi Calm Calm - N/A   Overcast
6:54 PM 33.1 °F - 25.0 °F 72% 29.83 in 10.0 mi Calm Calm - N/A   Overcast
7:54 PM 33.1 °F - 24.1 °F 70% 29.81 in 10.0 mi Calm Calm - N/A   Mostly Cloudy
8:54 PM 32.0 °F - 24.1 °F 73% 29.80 in 10.0 mi Calm Calm - N/A   Overcast
9:54 PM 32.0 °F 28.7 °F 26.1 °F 79% 29.78 in 10.0 mi North 3.5 mph - N/A   Overcast
10:54 PM 33.1 °F 30.0 °F 25.0 °F 72% 29.77 in 10.0 mi North 3.5 mph - N/A   Overcast
11:54 PM 33.1 °F - 24.1 °F 70% 29.75 in 10.0 mi Calm Calm - N/A   Overcast